SDA-1676

导读

SDA_1676是美国太空发展局于2025年10月15日发射的低轨小卫星,隶属于美国“大规模弹性作战太空体系”PWSA星座。作为该体系跟踪层1期卫星,它配备红外传感器与光学星间链路,部署于约1900千米高度轨道,主要承担对先进导弹、高超声速武器的探测预警与持续跟踪任务,支撑美军联合全域指挥控制与弹性导弹防御体系建设,是美军扩散式低轨天基感知网络的重要组成部分。

Basic Information
目录编号:
65986
目录名称:
SDA_1676
国际标识:
2025-230N
轨道中心:
EARTH
卫星名称:
SDA_1676
卫星全名:
SDA-1676
卫星状态:
在轨 (已飞行325 天)
发射日期:
2025-10-15 UTC
国别 :
美国 (US)
星等 :
--
Orbit Information
数据来源 国际轨道数据
星历时间: 2026-09-05T12:39:36+0800
12小时前
查看轨道信息
半长轴: 7348.805km
偏心率: 0.0001155
轨道倾角: 81.303°
近地点辐角 42.470°
升交点赤经 139.139°
平近点角 317.654°
近地点: 969.819km
远地点: 971.517km
周期: 104.492分钟
每日圈数: 13.780904
Detailed Information
使用方式:
暂无
2D Orbit Map
3D Orbit Map
Orbit Altitude Analysis Chart
Orbit Inclination Analysis Chart
Orbit Comprehensive Analysis Chart
View Comprehensive Chart
Conjunction Data List
Event ID Objects TCA Miss Dist (km) Collision Risk Probability Collision Risk Index (CRI) Action
CDM_260907-223101-073206-598622
SL-8 R/B (10732)
SDA_1676 (65986)
2026-09-07T
22:31:14+0000
0.777 km
远距离
5.823728E-5 中风险 0.7